Regional Weather Roundup
Issued by NWS Binghamton, NY

Home | Current Version | Previous Version | Text Only | Print | Product List | Glossary On
Versions: 1 2 3 4 5 6 7 8 9 10 11 12 13 14 15 16 17 18 19 20 21 22 23 24 25 26 27 28 29 30 31 32 33 34 35 36 37 38 39 40 41 42 43 44 45 46 47 48 49 50
563
ASUS41 KBGM 052110
RWRBGM

REGIONAL WEATHER ROUNDUP
NATIONAL WEATHER SERVICE BINGHAMTON NY
400 PM EST MON DEC 05 2016

Note: "fair" indicates few or no clouds below 12,000 feet with no
significant weather and/or obstructions to visibility.

* = Station(s) that does not report precipitation, such as rain,
snow, etc, also no thunder or fog.

NYZ009-015>018-022>025-036-037-044>046-055>057-062-052200
...Central New York...

CITY           SKY/WX    TMP DP  RH WIND       PRES   REMARKS
Binghamton     CLOUDY    36  27  69 NW5       29.96R WCI  32
Cortland       CLOUDY    37  32  81 CALM      29.98R
Dansville      CLOUDY    41  27  57 NW14G22   30.01R
Elmira         CLOUDY    42  29  59 NW9G17    29.99R
Seneca Falls   CLOUDY    43  30  61 W8        30.01R
Ithaca         MOCLDY    38  30  73 NW9       29.99R WCI  31
Hamilton       CLOUDY    37  28  70 CALM      29.97R
Monticello     CLOUDY    36  28  75 W9G17     29.96S WCI  29
Norwich        CLOUDY    37  28  70 W6        29.99R WCI  33
Oneonta        PTCLDY    34  27  75 W9        29.95R WCI  26
Penn Yan       CLOUDY    41  26  55 W10       29.99R
Rome           LGT RAIN  34  34 100 NW9       29.98R WCI  27
Sidney         CLOUDY    37  32  81 CALM      29.99R
Syracuse       CLOUDY    40  31  70 W12       29.98R WCI  33
$$

PAZ038>040-043-044-047-048-072-052200
...Northeast Pennsylvania...

CITY           SKY/WX    TMP DP  RH WIND       PRES   REMARKS
Hazleton       PTCLDY    41  30  65 NW9G17    30.01R
Scranton       CLOUDY    45  31  58 NW6       29.99R
$$
&&
KEY
WCI = Wind Chill Index
VSB = Visibility
HX  = Heat Index
$$




USA.gov is the U.S. government's official web portal to all federal, state and local government web resources and services.